Location: Ch�ze
(42.9000°N, 0.0333°W)
Time: 23:30:37
(UTC+00:00)

CZ-4 R/B - Pass Details

Date: 24 January 2021
Orbit: 530 x 599 km, 97.7° (Epoch: 24 February)

Event Time Altitude Azimuth Distance (km) Brightness Sun altitude
Rises 19:26:35 0° 197° (SSW) 2,788 5.2 -26.2°
Reaches altitude 10° 19:29:06 10° 212° (SSW) 1,883 4.4 -26.7°
Maximum altitude 19:32:21 23° 265° (W) 1,244 3.8 -27.3°
Drops below altitude 10° 19:35:34 10° 318° (NW) 1,862 4.5 -27.9°
Sets 19:38:04 0° 334° (NNW) 2,750 5.2 -28.3°
